Theta_e
340 343 341 346 346 343 343 345 349 346 346 344 342 341 340 341 342 334 335 336 335 337 338 339 340 341 343 344 343 342 342 343 343 343 344 344 344 345 344 341 344 344 343
344 340 341 343 344 346 345 344 348 348 345 344 341 341 341 342 342 341 334 335 336 338 339 340 340 341 341 341 341 343 343 343 345 346 348 347 347 346 344 342 341 344 344
345 344 347 346 345 346 345 345 345 347 344 344 343 342 342 339 344 344 345 342 339 336 337 338 340 341 342 342 343 343 344 344 344 345 347 346 347 347 345 344 339 344 346
341 347 343 344 343 340 345 346 347 347 344 343 344 344 344 344 340 343 346 346 346 347 347 340 341 343 344 345 345 345 345 344 344 345 345 340 347 345 346 342 339 342 346
346 348 346 350 341 348 346 345 347 346 345 342 344 344 344 346 344 347 346 346 345 346 350 349 344 350 351 349 348 348 348 347 345 342 342 339 346 346 347 340 335 339 342
345 347 345 345 345 353 349 346 348 346 344 344 344 344 343 345 346 347 346 347 348 338 347 350 346 352 353 354 354 353 350 346 348 347 340 339 344 346 346 334 331 335 336
341 349 348 342 348 347 343 349 347 350 350 346 348 345 344 345 345 346 346 347 348 346 347 351 349 355 355 352 355 354 351 347 348 347 340 343 344 345 346 330 326 328 330
346 348 350 351 347 331 347 349 342 351 340 349 347 348 349 345 345 345 344 346 346 347 348 348 351 352 354 355 355 354 348 339 337 337 340 343 345 345 345 337 324 330 334
342 347 347 350 345 351 351 349 340 348 349 347 349 351 351 345 338 342 343 344 343 346 346 350 350 342 356 350 355 352 341 339 338 339 340 344 344 344 344 340 337 331 332
349 348 343 346 348 349 346 353 355 349 343 338 349 349 350 343 340 334 337 336 336 342 335 347 347 350 350 352 350 348 341 339 337 340 341 345 344 343 344 341 341 342 342
346 347 350 346 343 340 351 346 352 349 348 349 353 345 337 350 349 347 338 343 343 338 338 345 348 348 351 350 348 349 342 341 340 336 342 345 345 345 345 345 345 345 344
343 346 349 348 348 343 349 349 345 345 342 345 347 350 353 350 345 346 348 347 346 347 346 348 349 345 349 347 351 349 344 341 343 336 343 345 345 346 345 343 339 342 344
351 350 346 349 346 347 343 350 347 347 350 349 347 344 352 352 350 346 346 346 346 347 347 343 341 345 347 351 350 348 344 345 344 339 345 345 345 342 337 335 335 337 337
348 346 350 350 348 348 350 347 346 345 345 347 350 348 343 346 349 345 347 344 342 341 340 346 347 349 346 350 349 347 348 346 349 340 342 344 343 338 336 341 346 346 347
350 351 352 352 348 350 348 348 351 348 350 349 353 347 350 344 342 348 349 346 346 346 347 343 348 349 348 347 346 343 344 351 348 342 340 342 340 336 337 342 346 346 345
349 350 350 347 352 351 350 349 347 348 349 347 348 349 349 350 346 349 349 346 346 347 346 345 347 348 346 348 347 348 347 349 346 347 347 344 338 336 339 342 344 346 345
347 350 346 348 350 350 349 350 350 346 350 351 349 347 349 352 350 342 348 348 350 349 348 348 347 347 347 349 347 344 343 347 347 347 347 343 338 338 341 342 343 342 342
344 346 345 346 347 349 350 350 347 346 347 348 347 347 346 348 351 349 348 344 347 346 343 345 344 340 343 346 345 341 348 350 348 347 347 344 341 340 342 341 339 338 337
346 348 348 347 347 349 350 350 349 348 347 347 350 349 350 347 347 346 347 346 349 347 348 347 345 340 342 343 344 344 346 348 348 347 347 345 343 343 341 340 338 337 335
349 348 348 347 345 347 349 350 348 348 348 348 349 346 348 349 348 347 347 346 344 345 345 343 341 340 347 348 344 344 344 342 344 345 340 345 344 343 340 338 336 335 334
350 347 347 351 349 347 347 348 350 350 347 347 347 347 347 346 343 344 345 344 345 344 344 343 341 346 344 342 341 341 340 346 348 346 345 345 343 343 339 337 336 334 333
347 348 346 345 348 349 349 347 348 344 346 347 348 348 348 348 345 344 344 344 344 344 344 341 341 342 342 341 340 341 344 343 346 347 345 345 340 341 340 339 339 337 334
345 345 344 345 345 345 344 345 344 343 344 342 343 344 345 345 344 343 343 344 344 343 342 341 339 339 339 339 340 340 339 339 342 342 340 344 343 342 341 340 338 334 331
347 347 347 347 344 342 343 344 342 341 343 342 342 342 341 341 342 342 343 342 341 340 339 337 337 338 339 339 339 338 337 338 338 341 341 339 340 340 340 337 336 332 331
346 344 347 346 343 342 343 343 342 342 342 341 340 341 340 338 336 338 342 338 337 337 338 335 337 338 336 334 335 334 333 337 338 337 337 339 337 337 335 333 331 330 328
345 344 343 344 343 343 343 341 339 340 340 340 338 336 337 338 339 338 337 337 338 341 340 337 334 334 335 334 333 333 332 331 335 332 336 337 333 329 323 325 330 331 322
Wind_Speed
11 8 11 3 8 3 5 6 1 6 10 9 7 8 8 10 1 7 9 10 10 9 9 9 8 8 8 8 8 9 10 11 12 13 14 15 14 14 13 11 8 7 8
8 11 12 10 6 8 7 6 5 8 7 3 8 7 7 10 6 3 8 8 8 7 6 6 6 7 6 6 6 7 9 10 11 14 15 17 15 15 15 13 10 7 7
13 8 3 9 9 8 11 6 7 7 8 7 6 10 7 6 10 7 2 6 9 8 6 5 5 5 6 6 6 7 8 10 11 13 15 18 16 16 16 14 11 7 7
13 11 10 9 9 12 8 5 5 6 8 4 6 6 5 5 3 10 5 4 5 4 4 5 3 4 5 6 7 9 10 11 12 13 14 18 16 16 18 15 12 8 8
16 11 10 7 9 8 10 12 7 10 11 9 8 8 3 6 1 2 4 8 6 8 6 5 3 3 6 9 11 13 13 14 13 14 14 18 15 16 19 17 13 9 8
13 7 9 6 12 9 13 15 8 9 8 8 7 7 4 6 1 10 8 3 10 6 12 12 6 2 6 8 12 13 16 15 14 14 15 13 14 15 18 16 12 9 9
14 4 5 8 12 8 5 6 2 3 3 5 4 5 6 6 5 5 7 13 16 12 14 11 12 7 5 8 9 12 17 13 14 14 12 12 14 14 16 14 10 9 10
8 4 7 5 4 7 7 3 13 4 6 6 7 5 7 7 11 6 11 9 11 16 15 21 6 7 12 7 7 9 12 12 14 12 8 12 13 13 12 12 9 8 9
9 8 8 5 10 7 6 4 12 8 7 5 3 1 7 2 10 12 7 9 18 15 22 6 16 24 6 4 4 10 5 9 11 11 9 10 12 11 8 9 10 10 10
7 7 7 11 13 3 6 3 2 4 5 4 6 1 6 1 8 10 19 16 18 13 24 7 20 17 4 1 4 6 8 9 11 11 9 8 11 9 9 9 9 9 9
12 10 9 12 14 10 4 7 7 4 1 1 1 2 6 6 14 6 14 19 8 2 5 8 7 5 5 4 5 6 9 8 13 12 8 7 7 9 10 10 12 11 10
8 9 10 11 11 10 7 10 9 9 9 8 5 3 7 8 9 10 11 11 11 13 7 5 6 4 4 6 6 9 10 13 12 12 8 6 9 9 10 10 11 10 9
11 9 13 12 10 9 11 7 10 10 10 5 9 9 8 4 6 9 9 14 15 7 3 16 9 12 4 5 8 13 12 13 12 13 9 9 10 11 12 11 10 9 9
10 18 13 16 15 15 10 11 12 10 5 10 9 10 13 11 7 9 12 10 14 14 16 10 14 2 1 4 6 13 12 14 10 13 9 9 12 13 10 9 8 9 9
11 9 10 14 14 13 15 13 13 13 9 12 9 7 9 4 8 13 9 7 12 11 13 13 11 2 6 6 11 13 12 16 15 13 9 9 12 10 8 8 7 9 11
17 16 18 19 15 15 16 15 16 12 13 14 13 12 13 12 16 10 10 13 9 11 11 13 10 11 10 14 9 13 11 14 17 17 11 12 12 8 7 7 7 7 9
18 16 17 15 16 18 18 18 18 14 17 16 12 16 16 12 14 15 13 12 11 10 9 11 9 11 10 9 11 10 13 10 18 14 9 12 9 7 7 7 8 8 8
16 17 16 16 15 16 16 18 18 15 16 17 16 14 16 12 15 12 12 13 12 16 16 18 18 15 15 16 16 9 8 11 10 7 6 8 6 8 6 6 6 7 8
14 14 13 13 13 15 14 14 15 14 16 19 15 15 15 15 16 15 17 15 12 13 15 17 16 14 11 16 14 16 13 11 9 10 7 9 8 9 7 5 5 6 7
14 10 12 10 12 14 12 11 13 15 15 16 16 18 18 17 17 19 18 16 15 16 17 16 16 16 12 9 11 7 7 9 9 4 9 8 9 8 7 4 5 6 7
14 16 12 11 12 11 12 11 14 15 14 13 12 11 14 17 16 17 17 17 17 18 19 17 13 12 13 14 12 9 7 10 3 6 8 4 7 3 5 6 7 11 12
20 21 18 18 15 17 14 16 18 19 17 15 15 15 14 15 17 17 16 15 15 14 11 12 14 16 14 13 11 8 7 6 4 6 10 7 10 7 4 8 11 15 16
19 20 21 21 22 20 21 21 20 19 19 19 17 17 15 15 14 15 10 11 10 10 11 11 12 13 13 13 12 11 13 10 7 2 5 6 12 15 11 13 13 14 15
19 18 20 21 22 23 21 21 22 18 18 18 18 14 15 15 14 11 10 8 8 9 11 12 14 13 12 11 10 10 9 9 7 9 10 8 10 14 12 11 12 12 12
17 18 22 26 24 23 23 20 18 17 18 17 13 13 14 13 12 11 11 11 12 12 10 10 13 11 10 11 11 11 10 9 6 11 12 9 7 8 7 10 15 12 13
18 20 22 25 25 23 21 14 6 8 10 9 3 2 4 5 8 10 17 16 12 10 8 6 7 9 11 11 13 13 13 12 10 6 8 4 7 5 6 12 11 10 11
Wind_Direction
145 147 156 150 153 188 102 121 98 93 96 88 114 128 135 123 299 74 103 107 107 105 104 101 94 86 77 66 52 40 32 23 18 15 12 5 1 0 359 351 338 335 336
120 140 115 137 174 178 169 180 201 160 119 145 120 111 121 126 141 51 89 95 94 91 90 89 84 79 70 57 44 34 25 15 12 8 4 2 359 359 357 353 348 336 334
166 167 185 190 187 193 188 182 145 130 128 128 139 121 145 140 146 169 35 50 62 66 60 69 77 74 59 42 21 9 2 356 356 354 359 1 1 357 354 352 351 346 346
164 153 174 170 223 149 170 162 165 148 179 129 116 150 99 154 184 136 163 285 334 293 349 11 29 36 27 10 356 348 345 348 346 347 352 0 359 3 358 352 353 351 350
158 172 171 195 183 182 212 199 187 168 180 171 152 166 165 197 55 111 236 186 217 244 273 280 278 328 343 351 345 337 332 332 338 346 342 345 350 356 357 355 353 358 357
172 186 171 187 225 301 211 210 182 177 172 189 187 157 148 221 339 202 283 311 227 260 228 238 305 283 315 331 340 341 339 327 326 333 341 350 351 352 353 356 356 2 5
175 166 130 200 269 247 162 183 245 143 238 251 159 156 168 210 237 248 290 278 244 296 264 234 294 273 325 323 333 334 335 338 332 329 338 351 353 349 353 360 8 15 21
195 131 177 229 271 181 166 213 170 88 228 239 231 294 218 183 204 252 254 272 256 270 332 280 284 339 296 285 313 324 348 354 354 348 345 351 349 344 350 7 16 21 26
204 186 210 251 171 227 224 158 155 228 198 193 316 87 50 90 321 282 273 264 309 265 293 301 298 287 277 356 296 332 3 9 4 4 355 347 355 353 352 2 13 10 8
205 254 226 232 226 224 68 268 192 285 77 275 316 71 93 186 203 209 251 266 321 283 279 317 302 329 150 198 285 341 357 1 358 348 349 353 2 4 352 340 342 352 359
209 208 242 251 243 249 273 275 275 259 194 41 355 109 236 282 279 106 350 268 215 101 10 290 304 320 254 12 16 330 338 349 349 340 339 350 4 9 357 349 334 328 334
210 224 229 247 263 248 271 293 286 294 274 278 266 99 307 330 314 341 322 261 260 334 209 9 212 128 302 311 316 306 331 329 340 341 333 338 337 335 334 328 320 313 313
220 222 211 239 256 263 247 259 260 271 267 278 270 247 248 281 301 305 306 326 341 351 281 333 302 321 191 272 315 330 340 340 333 343 334 328 331 334 336 339 346 337 318
242 237 233 232 241 243 246 255 266 264 287 270 287 275 266 262 259 331 289 310 328 324 332 354 340 84 150 344 13 337 327 330 326 334 324 334 331 337 346 359 16 15 3
230 224 225 244 238 244 245 241 258 258 258 265 260 285 287 300 266 296 329 298 325 320 326 328 5 33 11 342 313 308 315 316 318 316 326 334 332 335 345 357 11 14 18
228 234 247 244 239 238 245 246 246 250 259 258 264 271 262 263 262 261 328 292 290 307 304 303 355 351 334 352 342 321 299 293 309 303 308 337 326 330 342 350 356 358 4
239 240 246 252 246 244 242 238 243 232 251 251 258 250 262 269 283 263 266 286 304 321 313 274 304 300 332 320 307 328 338 296 294 279 299 339 327 338 354 5 7 6 6
251 252 255 256 257 251 246 248 253 250 245 252 261 274 256 266 276 284 295 290 297 293 289 293 289 300 297 302 292 294 323 307 281 281 281 323 347 348 357 5 17 16 18
248 243 243 254 261 265 259 259 264 261 255 254 258 264 265 263 258 257 255 269 265 274 278 287 294 296 322 303 315 293 277 304 279 273 299 304 327 340 335 343 1 16 21
247 253 243 258 259 252 250 267 272 277 272 260 268 262 260 258 267 271 272 275 277 270 275 281 279 289 309 314 332 302 298 298 296 289 309 280 306 334 339 338 351 357 359
237 247 244 247 262 273 261 254 261 269 276 270 276 285 282 274 270 267 272 266 264 272 277 283 282 296 302 301 308 297 298 308 227 245 265 290 268 282 8 337 340 343 343
230 233 228 231 232 238 242 252 257 265 270 268 263 257 256 272 277 277 269 270 271 274 273 278 285 294 291 294 291 288 259 296 249 271 294 279 245 266 295 322 319 332 329
245 246 243 236 241 244 247 258 260 260 265 265 263 260 265 266 269 269 271 263 265 264 273 281 285 288 288 296 292 284 288 288 291 178 289 257 252 243 272 301 310 329 335
247 251 249 243 249 262 263 262 268 263 256 255 263 263 272 279 274 266 277 263 264 272 279 285 288 289 287 295 296 297 296 281 276 258 263 277 267 249 275 287 302 316 324
251 259 253 258 260 262 262 258 262 259 246 249 258 266 267 269 278 272 256 273 286 285 280 283 280 276 281 291 290 285 263 270 300 287 293 268 267 256 277 289 298 303 319
243 255 259 256 254 251 249 245 245 241 240 237 207 333 300 283 292 285 260 267 287 278 273 278 272 277 284 281 276 275 269 262 248 288 269 226 177 223 272 279 274 294 311